Location: ????
(55.5675°N, 37.6272°E)
Time: 18:46:07
(UTC+00:00)

ERS-1 Rocket - Pass Details

Date: 14 April 2026
Orbit: 747 x 751 km, 98.2° (Epoch: 19 May)

Event Time Altitude Azimuth Distance (km) Brightness Sun altitude
Exits shadow 17:51:31 - 175° (S) 3,118 5.8 -10.7°
Reaches altitude 10° 17:53:39 10° 179° (S) 2,267 5.1 -10.9°
Maximum altitude 17:58:35 58° 259° (WSW) 873 3.5 -11.5°
Drops below altitude 10° 18:03:33 10° 339° (NNW) 2,286 6.4 -12.1°
Sets 18:05:54 0° 343° (NNW) 3,215 7.2 -12.3°
